sat.trackr.live / text

‹ back to catalog

KUIPER-00164

NORAD 67134 · 2025-301B

PAYLOAD ACTIVE UNKNOWN

§ Identity

Operator
Country
US
Launch date
2025-12-16
Launch site
AFETR
Launch vehicle
Mass (kg)
RCS (m²)

External: N2YO · Heavens-Above · Gunter

§ Orbital elements

Epoch: 2026-09-20T18:48:39.253824Z

Period
97.30 min
Inclination
51.9053°
Eccentricity
0.0000435
Mean motion
14.79928030 rev/d
Perigee alt
629.2 km
Apogee alt
629.9 km
Semi-major
7,007.7 km
B*
1.4040e-4
RAAN
285.4412°
Arg perigee
52.1538°
Mean anomaly
307.9464°
Rev number
4,276

§ Raw data

KUIPER-001641 67134U 25301B   26263.78378766  .00000849  00000+0  14040-3 0  99952 67134  51.9053 285.4412 0000435  52.1538 307.9464 14.79928030 42763

JSON: /api/v1/satellites/67134 · /tle

For live sub-satellite position, see the globe view (requires WebGL).

§ Visibility from observer

Set your observer location to see the next 7 days of passes ≥ 10°. The values pass through the URL so the page stays shareable.

No JS? Fill the form by hand. The geolocation button needs JavaScript.